Location: Heilbronn
(49.1548°N, 9.2780°E)
Time: 07:24:15
(UTC+02:00)

ISS - Visible Passes

Search period start: 29 March 2017 00:00
Search period end: 08 April 2017 00:00
Orbit: 399 x 409 km, 51.6° (Epoch: 29 March)

Date Brightness Start Highest point End Pass type
(mag) Time Alt. Az. Time Alt. Az. Time Alt. Az.
29 Mar -3.9 21:41:59 10° WSW 21:45:05 65° S 21:45:05 65° S visible
30 Mar -3.4 20:49:48 10° SW 20:52:55 42° SSE 20:55:19 15° E visible
30 Mar -2.1 22:26:05 10° W 22:28:00 31° W 22:28:00 31° W visible
31 Mar -3.8 21:33:37 10° WSW 21:36:54 79° NNW 21:38:02 37° ENE visible
31 Mar -0.6 23:10:21 10° WNW 23:10:43 12° WNW 23:10:43 12° WNW visible
01 Apr -3.9 20:41:15 10° WSW 20:44:30 75° SSE 20:47:46 10° ENE visible
01 Apr -2.9 22:17:52 10° W 22:20:37 47° NW 22:20:37 47° NW visible
02 Apr -3.4 21:25:21 10° W 21:28:35 59° N 21:30:24 23° ENE visible
02 Apr -1.1 23:02:02 10° WNW 23:03:04 18° WNW 23:03:04 18° WNW visible
03 Apr -3.6 20:32:51 10° W 20:36:06 72° NNW 20:39:23 10° ENE visible
03 Apr -3.3 22:09:35 10° WNW 22:12:46 54° N 22:12:46 54° N visible
04 Apr -3.2 21:17:03 10° W 21:20:16 52° N 21:22:25 19° ENE visible
04 Apr -1.5 22:53:38 10° WNW 22:55:04 24° WNW 22:55:04 24° WNW visible
05 Apr -3.7 22:01:10 10° WNW 22:04:26 66° NNE 22:04:40 63° NE visible
06 Apr -3.4 21:08:40 10° WNW 21:11:54 56° N 21:14:15 17° E visible
06 Apr -1.9 22:45:12 10° WNW 22:46:54 27° W 22:46:54 27° W visible
07 Apr -3.9 21:52:41 10° WNW 21:55:58 86° SSW 21:56:28 61° ESE visible
